Regional Weather Roundup
Issued by NWS Mobile, AL

Home | Current Version | Previous Version | Text Only | Print | Product List | Glossary Off
Versions: 1 2 3 4 5 6 7 8 9 10 11 12 13 14 15 16 17 18 19 20 21 22 23 24 25 26 27 28 29 30 31 32 33 34 35 36 37 38 39 40 41 42 43 44 45 46 47 48 49 50

000
ASUS44 KMOB 110412
RWRMOB
REGIONAL WEATHER ROUNDUP
NATIONAL WEATHER SERVICE MOBILE AL
1000 PM CST WED FEB 10 2016

NOTE: "FAIR" INDICATES FEW OR NO CLOUDS BELOW 12,000 FEET WITH NO
      SIGNIFICANT WEATHER AND/OR OBSTRUCTIONS TO VISIBILITY.

  * THESE STATIONS ARE PART OF THE UNIVERSITY OF SOUTH ALABAMA
    MESONET AND ARE NOT UNDER NWS OR FAA QUALITY CONTROL.

ALZ061>064-110500-
COASTAL ALABAMA

CITY           SKY/WX    TMP DP  RH WIND       PRES   REMARKS
MOBILE REG APT CLEAR     43  34  70 SW9       30.22F
BROOKLEY FIELD CLEAR     46  34  62 SW5       30.24F
USA CAMPUS*    NOT AVBL
DOG RIVER*     NOT AVBL


CITY           SKY/WX    TMP DP  RH WIND       PRES   REMARKS
MOUNT VERNON*  NOT AVBL
SARALAND*      NOT AVBL
BAY MINETTE*   NOT AVBL
LOXLEY*        NOT AVBL
ROBERTSDALE*   NOT AVBL
FAIRHOPE*      NOT AVBL
ELBERTA*       NOT AVBL
FOLEY*         NOT AVBL
GRAND BAY*     NOT AVBL
DAUPHIN ISLND* NOT AVBL
BON SCOUR NWR* NOT AVBL
GULF SHORES    CLEAR     43  35  74 SW7       30.23F

$$

ALZ051>060-110500-
INTERIOR SOUTHWEST AND SOUTH CENTRAL ALABAMA

CITY           SKY/WX    TMP DP  RH WIND       PRES   REMARKS
GREENVILLE     NOT AVBL
EVERGREEN      CLEAR     40  27  59 SW5       30.21S
CASTLEBERRY*   NOT AVBL
ATMORE*        NOT AVBL
DIXIE*         NOT AVBL
ANDALUSIA/OPP  CLEAR     41  20  43 CALM      30.21
ANDALUSIA*     NOT AVBL
FLORALA APT    CLEAR     38  24  57 CALM      30.24R
FLORALA*       NOT AVBL

$$

FLZ001>006-110500-
WESTERN FLORIDA PANHANDLE

CITY           SKY/WX    TMP DP  RH WIND       PRES   REMARKS
PENSACOLA      CLEAR     46  33  60 W7        30.23F
NAS PENSACOLA  CLEAR     43  34  70 W5        30.23F
MILTON         CLEAR     41  30  65 SW5       30.23S
WHTNG S FIELD  CLEAR     43  32  65 CALM      30.23F


CITY           SKY/WX    TMP DP  RH WIND       PRES   REMARKS
WALNUT HILL*   NOT AVBL
JAY*           NOT AVBL
DUKE FIELD     CLEAR     43  29  56 W5        30.22F
CRESTVIEW      CLEAR     31  26  82 CALM      30.24S
VALPARAISO     NOT AVBL
DESTIN         CLEAR     53  32  44 SW8       30.23F

$$

MSZ076-079-110500-
INTERIOR SOUTHEAST MISSISSIPPI

CITY           SKY/WX    TMP DP  RH WIND       PRES   REMARKS
LEAKESVILLE*   NOT AVBL
AGRICOLA*      NOT AVBL

$$

MARINE OBSERVATIONS

STATION/POSITION TIME  TEMP    WIND        PRES    WAVE
                       AIR SEA DIR/SP/G            HT/PER
                 (UTC) (F)     (DEG/KT/KT) (MB)    (FT/S)
PASCAGOULA       0300   53                 1024.1
PETIT BOIS ISLND 0300   54                 1024.8
KATRINA CUT      0300   53     260/ 15       N/A
CEDAR POINT      0300   52     250/ 14     1023.7S
E DAUPHIN ISLAND 0300   53     230/ 11/ 16 1024.1R
MIDDLE BAY LIGHT 0300          240/ 14     1023.7S
USCG MOBILE BAY  0300   46 53              1024.4
STATE DOCKS      0300   47 52              1023.6
MEAHER PARK      0300   51     230/ 13     1024.0S
WEEKS BAY        0245   46                   N/A
FORT MORGAN      0300   54                 1023.5
12 S ORANGE BCH  0350   56 65  240/ 17/ 21 1023.4F   2/ 4
PENSACOLA BAY    0300   50 50              1024.1

$$

SELECTED LOCATIONS ACROSS THE REGION

CITY           SKY/WX    TMP DP  RH WIND       PRES   REMARKS
NEW ORLEANS    PTCLDY    49  30  48 SW13      30.27R
GULFPORT       CLEAR     49  39  68 SW7       30.23F
PASCAGOULA AP  CLEAR     49  37  63 SW8       30.24S
PASCAGOULA*    NOT AVBL
HATTIESBURG    CLEAR     46  28  49 S5        30.19F
LAUREL         CLEAR     45  27  49 SW5       30.18F
MERIDIAN       CLEAR     33  27  78 CALM      30.17S
JACKSON        CLEAR     45  27  49 S8        30.13F
MONTGOMERY     CLEAR     32  21  64 CALM      30.21S
TROY           CLEAR     31  23  72 CALM      30.20F
KINSTON*       NOT AVBL
GENEVA*        NOT AVBL
ASHFORD*       NOT AVBL
DOTHAN         CLEAR     37  18  46 SW6       30.25S
PANAMA CITY    CLEAR     36  32  85 CALM      30.23S

$$




USA.gov is the U.S. government's official web portal to all federal, state and local government web resources and services.